Home   Weather   Goodyear   Past weeks
Flag for USA

Past Weather in Goodyear, Arizona, USA — Yesterday and Last 2 Weeks

Now
75 °F

Clear.


Feels Like: 77 °F
Forecast: 103 / 74 °F
Wind: 5 mph from Southwest

Location: Luke Air Force Base / Phoenix

Current Time: Jun 16, 2019 at 5:53:30 am

Latest Report: Jun 16, 2019 at 4:58 am


Visibility: 10 mi

Pressure: 29.73 "Hg

Humidity: 34%

Dew Point: 45 °F

Location of GoodyearLocation

Past Weather in Goodyear — Graph

°F

Goodyear Temperature Yesterday

Maximum temperature yesterday: 102 °F (at 4:58 pm)
Minimum temperature yesterday: 74 °F (at 4:58 am)
Average temperature yesterday: 90 °F

High & Low Weather Summary for the Past Weeks

 TemperatureHumidityPressure
High110 °F (Jun 12, 3:58 pm)48% (Jun 2, 5:58 am)30.01 "Hg (Jun 2, 5:58 am)
Low67 °F (Jun 1, 4:58 am)5% (Jun 12, 3:58 pm)29.60 "Hg (Jun 13, 6:58 pm)
Average89 °F19%29.76 "Hg
* Reported Jun 1 3:58 am — Jun 16 3:58 am, Goodyear. Weather by CustomWeather, © 2019

Note: Actual official high and low records may vary slightly from our data, if they occured in-between our weather recording intervals... More about our weather records

Advertising

Goodyear Weather History for the Previous 24 Hours

Scroll right to see more
 ConditionsComfort  
Time TempWeatherWind HumidityBarometerVisibility
3:58 am
Sun, Jun 16
81 °FClear.5 mph24%29.70 "Hg10 mi
2:58 am84 °FClear.7 mph19%29.68 "Hg10 mi
1:58 am86 °FClear.10 mph18%29.68 "Hg10 mi
12:58 am87 °FClear.10 mph19%29.68 "Hg10 mi
11:58 pm
Sat, Jun 15
88 °FClear.13 mph18%29.70 "Hg10 mi
10:58 pm89 °FClear.16 mph19%29.70 "Hg10 mi
9:58 pm89 °FClear.No wind22%29.70 "Hg10 mi
8:58 pm92 °FClear.6 mph16%29.67 "Hg10 mi
7:58 pm97 °FClear.8 mph10%29.67 "Hg10 mi
6:58 pm101 °FSunny.7 mph8%29.65 "Hg10 mi
5:58 pm101 °FSunny.5 mph9%29.65 "Hg10 mi
4:58 pm102 °FSunny.7 mph9%29.66 "Hg10 mi
3:58 pm101 °FSunny.6 mph8%29.69 "Hg10 mi
2:58 pm100 °FSunny.10 mph8%29.70 "Hg10 mi
1:58 pm100 °FPassing clouds.9 mph10%29.72 "Hg10 mi
12:58 pm98 °FScattered clouds.No wind13%29.75 "Hg10 mi
11:58 am95 °FPassing clouds.3 mph14%29.78 "Hg10 mi
10:58 am92 °FSunny.No wind15%29.80 "Hg10 mi
9:58 am91 °FSunny.No wind17%29.80 "Hg10 mi
8:58 am87 °FSunny.3 mph21%29.80 "Hg10 mi
7:58 am83 °FSunny.3 mph24%29.80 "Hg10 mi
6:58 am80 °FSunny.3 mph28%29.79 "Hg10 mi
5:58 am76 °FSunny.No wind29%29.77 "Hg10 mi
Weather by CustomWeather, © 2019

See weather overview